Find Starlink 30997

NORAD ID: 58482 Int'l Des: 2023-186 Owner: SPXS Country: US Constellation: starlink operational
LEOCIRCULAR

实时位置

正在加载3D地球...

关于 Starlink 30997

正在加载描述...

即将过境

Passes for default location (London). Set your location on the main map for personalized predictions.

高度历史

Loading altitude history...

两行轨道根数

1 58482U 23186K 26122.29172277 .00006101 00000-0 23682-3 0 9999
2 58482 42.9998 120.9258 0001323 281.9017 78.1686 15.26757937134099
Epoch: May 2, 2026 • Age: 15 hours

当前状态

高度 495.3 km
速度 7.62 km/s
星下点 -36.73°S, 132.83°W
发射日期 Dec 3, 2023
运行时间 2.4 years
类型 internet

技术详情

分类 Payload
质量 730.00 kg
干质量 700.00 kg
总质量 730.00 kg
长度 0.30 m
直径 4.10 m
跨度 29.00 m
形状 Box + pan
制造商 SPXS
平台类型 Starlink V2M
阶段状态 In Orbit
所有者/国家 SPXS/US

Most Searched